Observations

BIA Manual Entry


Date Temp Humidity Rainfall Dew Point Wind Direction Wind Speed Wind Pressure Condition Visibility
2025-05-14 08:00:59 25 93 0.00 24 160 5.7 1010 Partly Cloudy (Day) 20 km
2025-05-14 07:01:56 24 93 0.0 23 050 1.9 1010 Thunderstorm 10 km
2025-05-14 06:02:47 24 96 0.00 23 240 3.8 1010 Thundershowers 09 km
2025-05-14 05:02:36 24 97 0.00 24 030 20.9 1011 Thundershowers 10 km
2025-05-14 03:58:38 27 88 0.00 25 230 3.8 1009 Partly Cloudy (Night) 10 km
2025-05-14 03:07:12 27 88 25 230 5.7 1009 Night Thunderstorm 10KM
2025-05-14 03:00:51 27 88 0.00 25 230 5.7 1009 Partly Cloudy (Night) 10 km
2025-05-14 02:02:19 27 92 26 190 5.7 1009 Partly Cloudy (Night) 10 KM
2025-05-14 01:09:50 27 93 26 120 3.8 04 Night Thunderstorm 10KM
2025-05-14 00:00:17 28 90 26 230 5.7 1010 Night Thunderstorm 10KM
2025-05-13 23:03:50 28 87 26 150 3.8 1010 Night Thunderstorm 10KM
2025-05-13 21:58:43 29 85 26 060 3.8 1010 Cloudy 10KM
2025-05-13 20:01:42 29 79 0.1 25 050 7.6 1008 Thundershowers 10 KM
2025-05-13 19:01:04 30 76 0.00 26 060 9.5 1008 Lightning 10 KM
2025-05-13 17:59:45 31 72 0.00 25 360 15.2 1008 Cloudy 20 KM
2025-05-13 17:02:09 31 73 26 010 13.3 1007 Partly Cloudy (Day) 20 km
2025-05-13 15:59:57 32 71 25 030 15.2 1007 Partly Cloudy (Day) 15 km
2025-05-13 14:59:28 33 61 24 020 13.3 1008 Distant showers 10 km
2025-05-13 14:02:57 32 66 25 020 15.2 1008 Partly Cloudy (Day) 20 km
2025-05-13 12:57:33 31 70 25 030 9.5 1010 Partly Cloudy (Day) 20 KM
2025-05-13 11:58:18 32 66 24 010 15.2 1010 Partly Cloudy (Day) 20 KM
2025-05-13 11:02:52 31 65 23 050 7.6 1011 Partly Cloudy (Day) 20KM
2025-05-13 09:58:08 30 72 24 180 3.8 1011 Partly Cloudy (Day) 20KM
2025-05-13 08:00:01 27 86 0.0 24 210 3.8 1010 Partly Cloudy (Day) 20 km
2025-05-13 07:01:41 26 88 0.0 24 220 5.7 1010 Partly Cloudy (Day) 20 km